Torna al catalogo

ARIANE 44L R/B

AttivoHEO
NORAD 20316·ROCKET BODY·🇫🇷 France

Lanciato Oct 27, 1989 da Guiana Space Centre

Loading…

Prossimi Passaggi (prossime 24 ore)

TLE

AggiornatoSource: Space-Track

Epoca: Sep 14, 2026, 09:38 UTC

1 20316U 89087B   26257.40195230  .00495125 -83544-6  16944-2 0  9993
2 20316   7.2450  45.5122 4577896 244.8619  61.4597  6.55930264390117

Traccia ARIANE 44L R/B in tempo reale con AllMySat

Download on the App Store